When you browse on this site, cookies collect data to enhance your experience and personalize the content and advertising you see.
Visit our Privacy Policy to learn more. By continuing to use the site, you agree to this use of cookies and data.
  • Em Portugal
  • Lista de países
  • Para 7 dias
  • Temperatura da água
  • Mapas de satélite
  • Mapa do tempo
  • Widgets de tempo
  • user-avatar
    Iniciar Sessão

    Previsão horária em Dobrich

    Hoje, 19 Janeiro, Sábado

    Tempo Temperatura Precipitação Vento Pressão Humidade
    00:00 +3°C° 0 mm 2 m/s 738 mmHg 75%
    01:00 +3°C° 0 mm 2 m/s 738 mmHg 73%
    02:00 +2°C° 0 mm 3 m/s 738 mmHg 70%
    03:00 +2°C° 0 mm 3 m/s 738 mmHg 72%
    04:00 +2°C° 0 mm 3 m/s 739 mmHg 74%
    05:00 +1°C° 0 mm 3 m/s 739 mmHg 76%
    06:00 +1°C° 0 mm 3 m/s 740 mmHg 80%
    07:00 0°C° 0 mm 3 m/s 740 mmHg 84%
    08:00 -1°C° 0 mm 3 m/s 741 mmHg 89%
    09:00 0°C° 0 mm 3 m/s 741 mmHg 86%
    10:00 0°C° 0 mm 4 m/s 742 mmHg 84%
    11:00 +1°C° 0 mm 4 m/s 742 mmHg 81%
    12:00 +1°C° 0 mm 4 m/s 742 mmHg 79%
    13:00 +3°C° 0 mm 4 m/s 743 mmHg 77%
    14:00 +3°C° 0 mm 4 m/s 743 mmHg 75%
    15:00 +1°C° 0 mm 4 m/s 743 mmHg 77%
    16:00 +2°C° 0 mm 3 m/s 743 mmHg 80%
    17:00 +2°C° 0 mm 3 m/s 743 mmHg 82%
    18:00 +1°C° 0.1 mm 3 m/s 743 mmHg 84%
    19:00 +1°C° 0.1 mm 3 m/s 743 mmHg 87%
    20:00 +1°C° 0.1 mm 3 m/s 743 mmHg 89%
    21:00 +1°C° 0.3 mm 3 m/s 743 mmHg 90%
    22:00 +1°C° 0.3 mm 3 m/s 743 mmHg 92%
    23:00 +1°C° 0.3 mm 3 m/s 743 mmHg 93%

    Amanhã, 20 Janeiro, Domingo

    Tempo Temperatura Precipitação Vento Pressão Humidade
    00:00 0°C° 0.4 mm 4 m/s 743 mmHg 94%
    01:00 +1°C° 0.4 mm 4 m/s 743 mmHg 94%
    02:00 +1°C° 0.4 mm 4 m/s 743 mmHg 95%
    03:00 +1°C° 0.2 mm 4 m/s 742 mmHg 95%
    04:00 +1°C° 0.2 mm 4 m/s 742 mmHg 96%
    05:00 +1°C° 0.2 mm 4 m/s 741 mmHg 96%
    06:00 +3°C° 0.3 mm 4 m/s 741 mmHg 96%
    07:00 +3°C° 0.3 mm 4 m/s 741 mmHg 97%
    08:00 +3°C° 0.3 mm 4 m/s 741 mmHg 97%
    09:00 +4°C° 0.1 mm 4 m/s 741 mmHg 97%
    10:00 +4°C° 0.1 mm 4 m/s 741 mmHg 96%
    11:00 +5°C° 0.1 mm 5 m/s 740 mmHg 96%
    12:00 +5°C° 0.1 mm 4 m/s 740 mmHg 96%
    13:00 +6°C° 0.1 mm 4 m/s 739 mmHg 97%
    14:00 +7°C° 0.1 mm 3 m/s 739 mmHg 97%
    15:00 +7°C° 0.1 mm 3 m/s 738 mmHg 97%
    16:00 +7°C° 0.1 mm 3 m/s 738 mmHg 97%
    17:00 +7°C° 0.1 mm 3 m/s 738 mmHg 97%
    18:00 +7°C° 0.2 mm 3 m/s 738 mmHg 96%
    19:00 +7°C° 0.2 mm 3 m/s 738 mmHg 96%
    20:00 +7°C° 0.2 mm 3 m/s 737 mmHg 96%
    21:00 +7°C° 0.3 mm 3 m/s 737 mmHg 96%
    22:00 +7°C° 0.3 mm 3 m/s 737 mmHg 96%
    23:00 +5°C° 0.3 mm 3 m/s 737 mmHg 97%

    Depois de amanhã, 21 Janeiro, Segunda-feira

    Tempo Temperatura Precipitação Vento Pressão Humidade
    00:00 +5°C° 0 mm 3 m/s 737 mmHg 95%
    01:00 +4°C° 0 mm 4 m/s 738 mmHg 94%
    02:00 +3°C° 0 mm 4 m/s 738 mmHg 93%
    03:00 +1°C° 0 mm 5 m/s 738 mmHg 92%
    04:00 +1°C° 0 mm 5 m/s 738 mmHg 91%
    05:00 +1°C° 0 mm 5 m/s 738 mmHg 90%
    06:00 0°C° 0 mm 5 m/s 738 mmHg 91%
    07:00 0°C° 0 mm 5 m/s 739 mmHg 91%
    08:00 -1°C° 0 mm 5 m/s 739 mmHg 91%
    09:00 0°C° 0 mm 5 m/s 740 mmHg 89%
    10:00 0°C° 0 mm 5 m/s 741 mmHg 86%
    11:00 +1°C° 0 mm 5 m/s 741 mmHg 83%
    12:00 +1°C° 0 mm 5 m/s 741 mmHg 80%
    13:00 +1°C° 0 mm 5 m/s 741 mmHg 77%
    14:00 +3°C° 0 mm 4 m/s 741 mmHg 74%
    15:00 +1°C° 0 mm 4 m/s 742 mmHg 76%
    16:00 0°C° 0 mm 4 m/s 742 mmHg 79%
    17:00 0°C° 0 mm 3 m/s 742 mmHg 82%
    18:00 -1°C° 0 mm 3 m/s 742 mmHg 84%
    19:00 -1°C° 0 mm 3 m/s 743 mmHg 86%
    20:00 -2°C° 0 mm 2 m/s 743 mmHg 88%
    21:00 -2°C° 0 mm 2 m/s 743 mmHg 88%
    22:00 -2°C° 0 mm 2 m/s 743 mmHg 88%
    23:00 -3°C° 0 mm 2 m/s 744 mmHg 87%

    22 Janeiro, Terça-feira

    Tempo Temperatura Precipitação Vento Pressão Humidade
    00:00 -3°C° 0 mm 2 m/s 744 mmHg 88%
    01:00 -3°C° 0 mm 2 m/s 743 mmHg 89%
    02:00 -3°C° 0 mm 2 m/s 743 mmHg 89%
    03:00 -2°C° 0 mm 2 m/s 743 mmHg 90%
    04:00 -2°C° 0 mm 2 m/s 743 mmHg 90%
    05:00 -2°C° 0 mm 2 m/s 743 mmHg 91%
    06:00 -1°C° 0 mm 2 m/s 742 mmHg 90%
    07:00 -1°C° 0 mm 3 m/s 742 mmHg 90%
    08:00 0°C° 0 mm 3 m/s 742 mmHg 89%
    09:00 0°C° 0 mm 3 m/s 742 mmHg 86%
    10:00 0°C° 0 mm 4 m/s 742 mmHg 82%
    11:00 +1°C° 0 mm 4 m/s 742 mmHg 79%
    12:00 +1°C° 0 mm 4 m/s 741 mmHg 80%
    13:00 +3°C° 0 mm 4 m/s 741 mmHg 80%
    14:00 +3°C° 0 mm 4 m/s 740 mmHg 81%
    15:00 +3°C° 0 mm 4 m/s 740 mmHg 84%
    16:00 +1°C° 0 mm 4 m/s 739 mmHg 87%
    17:00 +1°C° 0 mm 4 m/s 738 mmHg 90%
    18:00 +1°C° 0 mm 5 m/s 738 mmHg 91%
    19:00 +1°C° 0 mm 5 m/s 738 mmHg 92%
    20:00 +1°C° 0 mm 6 m/s 737 mmHg 93%
    21:00 +1°C° 0 mm 6 m/s 737 mmHg 93%
    22:00 +2°C° 0 mm 6 m/s 737 mmHg 94%
    23:00 +2°C° 0 mm 6 m/s 736 mmHg 94%

    23 Janeiro, Quarta-feira

    Tempo Temperatura Precipitação Vento Pressão Humidade
    00:00 +2°C° 0 mm 6 m/s 736 mmHg 94%
    01:00 +3°C° 0 mm 6 m/s 735 mmHg 94%
    02:00 +3°C° 0 mm 6 m/s 735 mmHg 94%
    03:00 +3°C° 0.1 mm 6 m/s 734 mmHg 95%
    04:00 +3°C° 0.1 mm 6 m/s 733 mmHg 95%
    05:00 +4°C° 0.1 mm 6 m/s 733 mmHg 96%
    06:00 +4°C° 2.3 mm 6 m/s 732 mmHg 96%
    07:00 +4°C° 2.3 mm 6 m/s 732 mmHg 97%
    08:00 +5°C° 2.3 mm 5 m/s 732 mmHg 97%
    09:00 +5°C° 0.9 mm 6 m/s 732 mmHg 94%
    10:00 +5°C° 0.9 mm 6 m/s 731 mmHg 90%
    11:00 +6°C° 0.9 mm 7 m/s 731 mmHg 87%
    12:00 +8°C° 0.2 mm 7 m/s 731 mmHg 83%
    13:00 +9°C° 0.2 mm 8 m/s 730 mmHg 78%
    14:00 +10°C° 0.2 mm 8 m/s 730 mmHg 73%
    15:00 +10°C° 0 mm 7 m/s 730 mmHg 75%
    16:00 +9°C° 0 mm 6 m/s 730 mmHg 77%
    17:00 +8°C° 0 mm 5 m/s 730 mmHg 78%
    18:00 +8°C° 0 mm 5 m/s 730 mmHg 82%
    19:00 +7°C° 0 mm 5 m/s 731 mmHg 85%
    20:00 +7°C° 0 mm 4 m/s 731 mmHg 89%
    21:00 +7°C° 0 mm 4 m/s 731 mmHg 90%
    22:00 +7°C° 0 mm 4 m/s 731 mmHg 92%
    23:00 +7°C° 0 mm 4 m/s 731 mmHg 93%

    24 Janeiro, Quinta-feira

    Tempo Temperatura Precipitação Vento Pressão Humidade
    00:00 +7°C° 0.1 mm 4 m/s 731 mmHg 93%
    01:00 +7°C° 0.1 mm 5 m/s 731 mmHg 93%
    02:00 +7°C° 0.1 mm 5 m/s 731 mmHg 93%
    03:00 +7°C° 0.4 mm 6 m/s 730 mmHg 93%
    04:00 +7°C° 0.4 mm 6 m/s 730 mmHg 92%
    05:00 +6°C° 0.4 mm 7 m/s 730 mmHg 92%
    06:00 +6°C° 0.1 mm 7 m/s 730 mmHg 92%
    07:00 +6°C° 0.1 mm 7 m/s 730 mmHg 93%
    08:00 +6°C° 0.1 mm 8 m/s 730 mmHg 93%
    09:00 +6°C° 0.1 mm 8 m/s 730 mmHg 89%
    10:00 +7°C° 0.1 mm 8 m/s 730 mmHg 85%
    11:00 +8°C° 0.1 mm 7 m/s 730 mmHg 81%
    12:00 +8°C° 0 mm 6 m/s 730 mmHg 82%
    13:00 +8°C° 0 mm 5 m/s 729 mmHg 82%
    14:00 +8°C° 0 mm 4 m/s 729 mmHg 83%
    15:00 +8°C° 0 mm 4 m/s 728 mmHg 84%
    16:00 +7°C° 0 mm 4 m/s 728 mmHg 86%
    17:00 +7°C° 0 mm 3 m/s 728 mmHg 88%
    18:00 +7°C° 0 mm 3 m/s 728 mmHg 89%
    19:00 +6°C° 0 mm 4 m/s 728 mmHg 90%
    20:00 +5°C° 0 mm 4 m/s 728 mmHg 91%
    21:00 +5°C° 0 mm 4 m/s 728 mmHg 91%
    22:00 +7°C° 0 mm 3 m/s 728 mmHg 91%
    23:00 +7°C° 0 mm 3 m/s 728 mmHg 91%
    Mostrar mais